Hourly Data Report for December 19, 2003

SHERBROOKE A
QUEBEC

45°26'00.000" N
71°41'00.000" W
241.40 m
7028124
71610
YSC

Download Data

Hourly Data (December 2003)
Hourly Data Report for December 19, 2003
TIME
LST
Temp Definition
°C
Dew Point Definition
°C
Rel Hum Definition
%
Precip. Amount Definition
mm

Wind Dir Definition
10's deg

Wind Spd Definition
km/h
Visibility Definition
km
Stn Press Definition
kPa
Hmdx Definition


Wind Chill Definition


Weather Definition


00:00 -6.6 -8.5 86   24 24 8.0 96.80   -14 Snow
01:00 -7.1 -9.2 85   25 17 12.9 96.85   -14 Snow
02:00 -7.8 -9.6 87   26 19 6.4 96.95   -15 Snow
03:00 -8.1 -10.2 85   26 20 15.0 97.03   -15 Snow
04:00 -9.9 -12.0 85   25 15 15.0 97.10   -17  
05:00 -10.5 -12.4 86   24 13 15.0 97.15   -17  
06:00 -10.0 -12.0 85   26 15 15.0 97.21   -17  
07:00 -8.9 -11.0 85   27 20 15.0 97.27   -16  
08:00 -8.7 -10.8 85   27 19 24.1 97.31   -16 Mostly Cloudy
09:00 -8.5 -10.7 84   25 13 19.3 97.44   -14 Mostly Cloudy
10:00 -7.5 -9.9 83   23 9 19.3 97.51   -12 Snow Showers
11:00 -7.0 -8.8 87   24 7 2.4 97.51   -11 Snow
12:00 -6.5 -8.4 86   26 11 4.8 97.46   -11 Snow Showers
13:00 -5.9 -8.0 85   26 13 12.9 97.45   -11 Snow Showers
14:00 -5.8 -8.3 82   27 11 19.3 97.48   -11 Cloudy
15:00 -5.9 -8.6 81   27 15 24.1 97.52   -12 Mostly Cloudy
16:00 -6.2 -8.9 81   26 13 24.1 97.56   -12 Mostly Cloudy
17:00 -6.5 -8.8 84   23 6 24.1 97.60   -9 Mostly Cloudy
18:00 -6.7 -8.9 84   28 6 15.0 97.65   -10  
19:00 -6.8 -9.0 84   26 9 15.0 97.73   -11 Snow
20:00 -7.0 -9.5 82   27 11 9.7 97.73   -12 Snow
21:00 -7.6 -9.7 85   25 7 4.8 97.75   -11 Snow
22:00 -10.3 -11.7 89     0 15.0 97.76      
23:00 -10.0 -11.9 86     0 6.4 97.77     Snow

Notes on Data Quality.

Legend

  • E = Estimated
  • M = Missing
  • NA = Not Available*
  • [empty] = Indicates an unobserved value
Date modified: